Time,TemperatureF,DewpointF,PressureIn,WindDirection,WindDirectionDegrees,WindSpeedMPH,WindSpeedGustMPH,Humidity,HourlyPrecipIn,Conditions,Clouds,dailyrainin,SoftwareType,DateUTC
2013-05-01 09:22:00,68.0,-99.9,30.22,South,170,23.0,-999.0,-999,-99.99,,,-99.99,,2013-05-01 13:22:00,
2013-05-01 09:32:00,68.0,-99.9,30.22,South,170,23.0,-999.0,-999,-99.99,,,-99.99,,2013-05-01 13:32:00,
2013-05-01 10:00:00,66.0,-99.9,30.20,South,170,26.0,-999.0,-999,-99.99,,,-99.99,,2013-05-01 14:00:00,
2013-05-01 10:22:00,66.0,-99.9,30.20,South,170,26.0,-999.0,-999,-99.99,,,-99.99,,2013-05-01 14:22:00,
2013-05-01 10:32:00,66.0,-99.9,30.20,South,170,26.0,-999.0,-999,-99.99,,,-99.99,,2013-05-01 14:32:00,
2013-05-01 10:42:00,66.0,-99.9,30.20,South,170,26.0,-999.0,-999,-99.99,,,-99.99,,2013-05-01 14:42:00,
2013-05-01 10:52:00,66.0,-99.9,30.20,South,170,26.0,-999.0,-999,-99.99,,,-99.99,,2013-05-01 14:52:00,
2013-05-01 11:00:00,58.0,-99.9,30.20,South,170,26.0,-999.0,-999,-99.99,,,-99.99,,2013-05-01 15:00:00,
2013-05-01 11:22:00,58.0,-99.9,30.20,South,170,26.0,-999.0,-999,-99.99,,,-99.99,,2013-05-01 15:22:00,
2013-05-01 11:33:00,58.0,-99.9,30.20,South,170,26.0,-999.0,-999,-99.99,,,-99.99,,2013-05-01 15:33:00,
2013-05-01 11:43:00,58.0,-99.9,30.20,South,170,26.0,-999.0,-999,-99.99,,,-99.99,,2013-05-01 15:43:00,
2013-05-01 11:53:00,58.0,-99.9,30.20,South,170,26.0,-999.0,-999,-99.99,,,-99.99,,2013-05-01 15:53:00,
2013-05-01 12:22:00,52.0,-99.9,30.20,South,170,28.0,-999.0,-999,-99.99,,,-99.99,,2013-05-01 16:22:00,
2013-05-01 12:32:00,52.0,-99.9,30.20,South,170,28.0,-999.0,-999,-99.99,,,-99.99,,2013-05-01 16:32:00,
2013-05-01 13:12:00,51.0,-99.9,30.20,SSE,160,25.0,-999.0,-999,-99.99,,,-99.99,,2013-05-01 17:12:00,
2013-05-01 13:22:00,51.0,-99.9,30.20,SSE,160,25.0,-999.0,-999,-99.99,,,-99.99,,2013-05-01 17:22:00,
2013-05-01 14:12:00,51.0,-99.9,30.20,SSE,160,23.0,-999.0,-999,-99.99,,,-99.99,,2013-05-01 18:12:00,
2013-05-01 14:22:00,51.0,-99.9,30.20,SSE,160,23.0,-999.0,-999,-99.99,,,-99.99,,2013-05-01 18:22:00,
2013-05-01 14:32:00,51.0,-99.9,30.20,SSE,160,23.0,-999.0,-999,-99.99,,,-99.99,,2013-05-01 18:32:00,
2013-05-01 15:12:00,51.0,-99.9,30.20,SSE,160,28.0,-999.0,-999,-99.99,,,-99.99,,2013-05-01 19:12:00,
2013-05-01 15:22:00,51.0,-99.9,30.20,SSE,160,28.0,-999.0,-999,-99.99,,,-99.99,,2013-05-01 19:22:00,
2013-05-01 16:32:00,51.0,-99.9,30.18,SSE,160,26.0,-999.0,-999,-99.99,,,-99.99,,2013-05-01 20:32:00,
2013-05-01 17:32:00,51.0,-99.9,30.18,SSE,160,25.0,-999.0,-999,-99.99,,,-99.99,,2013-05-01 21:32:00,
2013-05-01 17:43:00,51.0,-99.9,30.18,SSE,160,25.0,-999.0,-999,-99.99,,,-99.99,,2013-05-01 21:43:00,
2013-05-01 17:53:00,51.0,-99.9,30.18,SSE,160,25.0,-999.0,-999,-99.99,,,-99.99,,2013-05-01 21:53:00,
2013-05-01 18:33:00,54.0,-99.9,30.18,SSE,160,28.0,-999.0,-999,-99.99,,,-99.99,,2013-05-01 22:33:00,
2013-05-01 19:00:00,53.0,-99.9,30.18,SSE,160,30.0,-999.0,-999,-99.99,,,-99.99,,2013-05-01 23:00:00,
2013-05-01 19:32:00,53.0,-99.9,30.18,SSE,160,30.0,-999.0,-999,-99.99,,,-99.99,,2013-05-01 23:32:00,
2013-05-01 20:00:00,53.0,-99.9,30.17,SSE,160,26.0,-999.0,-999,-99.99,,,-99.99,,2013-05-02 00:00:00,
2013-05-01 20:52:00,53.0,-99.9,30.17,SSE,160,26.0,-999.0,-999,-99.99,,,-99.99,,2013-05-02 00:52:00,
2013-05-01 21:00:00,47.0,-99.9,30.18,South,180,22.0,-999.0,-999,-99.99,,,-99.99,,2013-05-02 01:00:00,
2013-05-01 21:22:00,47.0,-99.9,30.18,South,180,22.0,-999.0,-999,-99.99,,,-99.99,,2013-05-02 01:22:00,
2013-05-01 21:32:00,47.0,-99.9,30.18,South,180,22.0,-999.0,-999,-99.99,,,-99.99,,2013-05-02 01:32:00,
2013-05-01 22:00:00,46.0,-99.9,30.21,WNW,300,18.0,-999.0,-999,-99.99,,,-99.99,,2013-05-02 02:00:00,
2013-05-01 22:22:00,46.0,-99.9,30.21,WNW,300,18.0,-999.0,-999,-99.99,,,-99.99,,2013-05-02 02:22:00,
2013-05-01 22:32:00,46.0,-99.9,30.21,WNW,300,18.0,-999.0,-999,-99.99,,,-99.99,,2013-05-02 02:32:00,
2013-05-01 22:42:00,46.0,-99.9,30.21,WNW,300,18.0,-999.0,-999,-99.99,,,-99.99,,2013-05-02 02:42:00,
2013-05-01 22:52:00,46.0,-99.9,30.21,WNW,300,18.0,-999.0,-999,-99.99,,,-99.99,,2013-05-02 02:52:00,
2013-05-01 23:00:00,45.0,-99.9,30.22,WNW,300,25.0,-999.0,-999,-99.99,,,-99.99,,2013-05-02 03:00:00,
2013-05-01 23:22:00,45.0,-99.9,30.22,WNW,300,25.0,-999.0,-999,-99.99,,,-99.99,,2013-05-02 03:22:00,
2013-05-01 23:33:00,45.0,-99.9,30.22,WNW,300,25.0,-999.0,-999,-99.99,,,-99.99,,2013-05-02 03:33:00,
2013-05-01 23:43:00,45.0,-99.9,30.22,WNW,300,25.0,-999.0,-999,-99.99,,,-99.99,,2013-05-02 03:43:00,
2013-05-01 23:53:00,45.0,-99.9,30.22,WNW,300,25.0,-999.0,-999,-99.99,,,-99.99,,2013-05-02 03:53:00,